Back to catalog

SL-12 R/B

AUX MOTOR

AliveHEO
NORAD 13609·ROCKET BODY·🇷🇺 Russia

Launched Oct 12, 1982 from Baikonur Cosmodrome

Loading…

Next Passes (next 24 hours)

TLE

FreshSource: Space-Track

Epoch: Sep 14, 2026, 11:33 UTC

1 13609U 82100G   26257.48184991  .00009295  00000-0  10069-2 0  9999
2 13609  52.0041 255.8724 4773550  47.6791 344.0362  6.03160150819980

Track SL-12 R/B in real time with AllMySat

Download on the App Store